21.8°F
Current conditions from King Hill
Updated every 5 minutes
 
  Sunday December 21, 2014

Station Historical Data
Daily Summary for January 27, 2012 Units:  Metric    English   Both
« Previous Day
Next Day »
Daily Weekly Monthly Yearly Custom
  High: Low: Average:
Temperature: 4.5 °C -1.4 °C 1.6 °C
Dew Point: 3.1 °C -3.3 °C -0.4 °C
Humidity: 91% 83% 87%
Wind Speed: 19.3km/h 1.6km/h 7.1km/h
Wind Gust: 37km/h - -
Wind- - SW
Pressure: 1010 hPa 989.1 hPa -
Precipitation: 0 mm    
Historical Graphs
 
 
Tabular Data for January 27, 2012
Time Temperature Dew Point Pressure Wind Wind Speed Wind Gust Humidity Daily Rainfall
00:04 -0.8 °C -3.1 °C 1010 hPa South 4.8 km/h 17.7 km/h 85% 0 mm
00:09 -0.8 °C -3.1 °C 1010 hPa South 4.8 km/h 19.3 km/h 85% 0 mm
00:14 -0.8 °C -3 °C 1009.7 hPa South 6.4 km/h 19.3 km/h 85% 0 mm
00:19 -0.7 °C -2.9 °C 1009.7 hPa SSW 8 km/h 19.3 km/h 85% 0 mm
00:24 -0.7 °C -2.9 °C 1009.7 hPa South 6.4 km/h 19.3 km/h 85% 0 mm
00:29 -0.7 °C -2.9 °C 1009.4 hPa South 6.4 km/h 16.1 km/h 85% 0 mm
00:34 -0.7 °C -2.9 °C 1009 hPa South 6.4 km/h 16.1 km/h 85% 0 mm
00:39 -0.7 °C -2.8 °C 1009 hPa South 6.4 km/h 16.1 km/h 86% 0 mm
00:44 -0.7 °C -2.7 °C 1009 hPa South 6.4 km/h 17.7 km/h 86% 0 mm
00:49 -0.6 °C -2.6 °C 1008.7 hPa South 9.7 km/h 17.7 km/h 86% 0 mm
00:54 -0.4 °C -2.5 °C 1008.7 hPa South 6.4 km/h 14.5 km/h 86% 0 mm
00:59 -0.3 °C -2.4 °C 1008.7 hPa South 9.7 km/h 19.3 km/h 86% 0 mm
01:04 -0.3 °C -2.3 °C 1008.4 hPa South 11.3 km/h 20.9 km/h 86% 0 mm
01:09 -0.2 °C -2.2 °C 1008.4 hPa South 6.4 km/h 22.5 km/h 86% 0 mm
01:14 -0.1 °C -2.3 °C 1008.4 hPa SSW 8 km/h 22.5 km/h 85% 0 mm
01:19 -0.1 °C -2.3 °C 1008.4 hPa South 8 km/h 19.3 km/h 85% 0 mm
01:24 -0.1 °C -2.3 °C 1008 hPa South 8 km/h 16.1 km/h 85% 0 mm
01:29 0 °C -2.4 °C 1008 hPa South 9.7 km/h 16.1 km/h 84% 0 mm
01:34 0.1 °C -2.3 °C 1008 hPa South 9.7 km/h 16.1 km/h 84% 0 mm
01:39 0.2 °C -2.4 °C 1007.7 hPa South 8 km/h 16.1 km/h 83% 0 mm
01:44 0.2 °C -2.3 °C 1007.7 hPa South 8 km/h 22.5 km/h 83% 0 mm
01:49 0.3 °C -2.2 °C 1007.7 hPa South 4.8 km/h 22.5 km/h 83% 0 mm
01:54 0.3 °C -2.2 °C 1007.7 hPa South 1.6 km/h 12.9 km/h 83% 0 mm
01:59 0.4 °C -2.2 °C 1007.7 hPa South 3.2 km/h 12.9 km/h 83% 0 mm
02:04 0.4 °C -2.2 °C 1007.3 hPa South 3.2 km/h 8 km/h 83% 0 mm
02:09 0.4 °C -1.9 °C 1007.3 hPa Calm   4.8 km/h 84% 0 mm
02:14 0.4 °C -2 °C 1007.3 hPa Calm   3.2 km/h 84% 0 mm
02:19 0.4 °C -1.8 °C 1007 hPa Calm   1.6 km/h 85% 0 mm
02:24 0.4 °C -1.8 °C 1007 hPa Calm   3.2 km/h 85% 0 mm
02:29 0.4 °C -1.7 °C 1007 hPa Calm   4.8 km/h 86% 0 mm
02:34 0.4 °C -1.6 °C 1007 hPa Calm   4.8 km/h 86% 0 mm
02:39 0.4 °C -1.6 °C 1007 hPa SSE 1.6 km/h 4.8 km/h 86% 0 mm
02:44 0.4 °C -1.6 °C 1006.7 hPa Calm   4.8 km/h 86% 0 mm
02:49 0.4 °C -1.4 °C 1006.7 hPa SE 1.6 km/h 4.8 km/h 87% 0 mm
02:54 0.4 °C -1.4 °C 1006.7 hPa Calm   4.8 km/h 87% 0 mm
02:59 0.5 °C -1.4 °C 1006.7 hPa Calm   4.8 km/h 87% 0 mm
03:04 0.6 °C -1.3 °C 1006.7 hPa Calm   4.8 km/h 87% 0 mm
03:09 0.6 °C -1.3 °C 1006.7 hPa Calm   3.2 km/h 87% 0 mm
03:14 0.6 °C -1.3 °C 1006.3 hPa Calm   3.2 km/h 87% 0 mm
03:20 0.6 °C -1.3 °C 1006.3 hPa Calm   3.2 km/h 87% 0 mm
03:29 0.5 °C -1.3 °C 1005.6 hPa Calm     88% 0 mm
03:34 0.5 °C -1.3 °C 1005.6 hPa Calm   8 km/h 88% 0 mm
03:39 0.5 °C -1.3 °C 1005.6 hPa Calm   8 km/h 88% 0 mm
03:44 0.6 °C -1.2 °C 1005.6 hPa Calm   6.4 km/h 88% 0 mm
03:49 0.6 °C -1.2 °C 1005.3 hPa South 3.2 km/h 9.7 km/h 88% 0 mm
03:54 0.6 °C -1.2 °C 1005.3 hPa South 1.6 km/h 9.7 km/h 88% 0 mm
03:59 0.7 °C -1.1 °C 1005 hPa SSE 1.6 km/h 6.4 km/h 88% 0 mm
04:04 0.7 °C -1.1 °C 1005 hPa Calm   6.4 km/h 88% 0 mm
04:09 0.7 °C -1.1 °C 1005 hPa SSE 3.2 km/h 8 km/h 88% 0 mm
04:14 0.7 °C -1.1 °C 1004.6 hPa SSE 1.6 km/h 9.7 km/h 88% 0 mm
04:19 0.7 °C -1.1 °C 1004.6 hPa South 8 km/h 14.5 km/h 88% 0 mm
04:24 0.8 °C -1 °C 1004.6 hPa South 6.4 km/h 14.5 km/h 88% 0 mm
04:29 0.8 °C -0.9 °C 1004.3 hPa SSE 4.8 km/h 16.1 km/h 88% 0 mm
04:34 0.9 °C -1.1 °C 1003.9 hPa Calm   16.1 km/h 87% 0 mm
04:39 0.9 °C -1 °C 1003.9 hPa South 3.2 km/h 14.5 km/h 87% 0 mm
04:44 1 °C -0.9 °C 1003.6 hPa South 1.6 km/h 11.3 km/h 87% 0 mm
04:49 1 °C -0.9 °C 1003.6 hPa SSE 1.6 km/h 17.7 km/h 87% 0 mm
04:54 1.1 °C -0.7 °C 1003.3 hPa South 1.6 km/h 17.7 km/h 88% 0 mm
04:59 1.1 °C -0.9 °C 1003.3 hPa SSW 1.6 km/h 11.3 km/h 87% 0 mm
05:04 1.1 °C -0.7 °C 1002.9 hPa Calm   11.3 km/h 88% 0 mm
05:09 1.1 °C -0.7 °C 1002.6 hPa Calm   9.7 km/h 88% 0 mm
05:14 1.1 °C -0.7 °C 1002.6 hPa SSE 1.6 km/h 6.4 km/h 88% 0 mm
05:19 1.1 °C -0.7 °C 1002.3 hPa SSE 3.2 km/h 11.3 km/h 88% 0 mm
05:24 1.2 °C -0.6 °C 1002.3 hPa SSE 6.4 km/h 16.1 km/h 88% 0 mm
05:29 1.2 °C -0.6 °C 1001.9 hPa SE 1.6 km/h 16.1 km/h 88% 0 mm
05:34 1.3 °C -0.5 °C 1001.9 hPa SE 1.6 km/h 8 km/h 88% 0 mm
05:39 1.3 °C -0.4 °C 1001.6 hPa SSE 3.2 km/h 12.9 km/h 88% 0 mm
05:44 1.3 °C -0.4 °C 1001.6 hPa SSE 1.6 km/h 12.9 km/h 88% 0 mm
05:49 1.3 °C -0.4 °C 1001.6 hPa SSE 3.2 km/h 11.3 km/h 88% 0 mm
05:54 1.4 °C -0.4 °C 1001.2 hPa Calm   11.3 km/h 88% 0 mm
05:59 1.4 °C -0.4 °C 1001.2 hPa Calm   11.3 km/h 88% 0 mm
06:04 1.5 °C -0.3 °C 1000.9 hPa South 3.2 km/h 12.9 km/h 88% 0 mm
06:09 1.6 °C -0.2 °C 1000.9 hPa SSE 1.6 km/h 14.5 km/h 88% 0 mm
06:14 1.7 °C -0.1 °C 1000.9 hPa SSE 4.8 km/h 14.5 km/h 88% 0 mm
06:19 1.8 °C 0.1 °C 1000.9 hPa South 6.4 km/h 16.1 km/h 88% 0 mm
06:24 1.9 °C -0.1 °C 1000.9 hPa SSE 1.6 km/h 16.1 km/h 87% 0 mm
06:29 1.9 °C -0.1 °C 1000.6 hPa SSW 3.2 km/h 11.3 km/h 87% 0 mm
06:34 1.9 °C -0.1 °C 1000.6 hPa SSW 3.2 km/h 12.9 km/h 87% 0 mm
06:39 1.9 °C 0.2 °C 1000.6 hPa South 4.8 km/h 14.5 km/h 88% 0 mm
06:44 1.9 °C 0.2 °C 1000.2 hPa Calm   14.5 km/h 88% 0 mm
06:49 1.9 °C 0.1 °C 999.9 hPa SSE 6.4 km/h 20.9 km/h 88% 0 mm
06:54 1.9 °C 0.2 °C 999.5 hPa South 1.6 km/h 20.9 km/h 88% 0 mm
06:59 2.1 °C 0.3 °C 999.9 hPa South 8 km/h 16.1 km/h 88% 0 mm
07:04 2.1 °C 0.3 °C 999.5 hPa SSE 6.4 km/h 16.1 km/h 88% 0 mm
07:09 2.1 °C 0.2 °C 999.5 hPa South 4.8 km/h 12.9 km/h 87% 0 mm
07:14 2.2 °C 0.2 °C 999.5 hPa South 4.8 km/h 20.9 km/h 87% 0 mm
07:20 2.1 °C 0.2 °C 999.2 hPa SSE 6.4 km/h 20.9 km/h 87% 0 mm
07:29 2.1 °C 0.2 °C 998.9 hPa SSE 6.4 km/h 19.3 km/h 87% 0 mm
07:34 2.1 °C 0.1 °C 998.5 hPa SE 3.2 km/h 19.3 km/h 87% 0 mm
07:39 2.1 °C 0.1 °C 998.5 hPa SSE 4.8 km/h 12.9 km/h 87% 0 mm
07:44 2.1 °C 0.3 °C 998.2 hPa SSE 3.2 km/h 20.9 km/h 88% 0 mm
07:49 2.2 °C 0.4 °C 998.5 hPa South 8 km/h 20.9 km/h 88% 0 mm
07:54 2.2 °C 0.3 °C 998.2 hPa South 8 km/h 19.3 km/h 87% 0 mm
07:59 2.3 °C 0.3 °C 997.9 hPa South 14.5 km/h 29 km/h 87% 0 mm
08:04 2.4 °C 0.3 °C 998.2 hPa SSW 9.7 km/h 35.4 km/h 86% 0 mm
08:09 2.3 °C 0.2 °C 997.9 hPa SSW 9.7 km/h 35.4 km/h 86% 0 mm
08:14 2.3 °C 0.2 °C 997.5 hPa South 12.9 km/h 29 km/h 86% 0 mm
08:19 2.4 °C 0.3 °C 997.2 hPa South 11.3 km/h 29 km/h 86% 0 mm
08:24 2.4 °C 0.3 °C 997.2 hPa South 9.7 km/h 25.7 km/h 86% 0 mm
08:29 2.5 °C 0.4 °C 996.8 hPa South 9.7 km/h 27.4 km/h 86% 0 mm
08:39 2.6 °C 0.5 °C 996.2 hPa South 11.3 km/h 25.7 km/h 86% 0 mm
08:44 2.7 °C 0.6 °C 996.2 hPa SSW 8 km/h 25.7 km/h 86% 0 mm
08:49 2.8 °C 0.6 °C 996.2 hPa South 12.9 km/h 27.4 km/h 85% 0 mm
08:54 2.8 °C 0.6 °C 996.2 hPa South 12.9 km/h 29 km/h 85% 0 mm
08:59 2.9 °C 0.6 °C 995.8 hPa South 12.9 km/h 32.2 km/h 85% 0 mm
09:04 2.8 °C 0.6 °C 996.5 hPa SSW 11.3 km/h 32.2 km/h 85% 0 mm
09:09 2.8 °C 0.7 °C 996.5 hPa SSW 12.9 km/h 25.7 km/h 86% 0 mm
09:14 2.7 °C 0.6 °C 996.2 hPa SSW 12.9 km/h 25.7 km/h 86% 0 mm
09:19 2.6 °C 0.5 °C 996.2 hPa SSW 9.7 km/h 24.1 km/h 86% 0 mm
09:24 2.6 °C 0.5 °C 996.2 hPa SSW 9.7 km/h 22.5 km/h 86% 0 mm
09:30 2.6 °C 0.7 °C 996.2 hPa SSW 9.7 km/h 25.7 km/h 87% 0 mm
09:39 2.6 °C 0.7 °C 996.2 hPa SSW 11.3 km/h 22.5 km/h 87% 0 mm
09:44 2.6 °C 0.6 °C 996.5 hPa SSW 8 km/h 22.5 km/h 87% 0 mm
09:49 2.5 °C 0.7 °C 996.2 hPa SSW 6.4 km/h 16.1 km/h 88% 0 mm
09:54 2.4 °C 0.7 °C 996.2 hPa SSW 3.2 km/h 11.3 km/h 88% 0 mm
09:59 2.4 °C 0.7 °C 995.8 hPa SSW 6.4 km/h 9.7 km/h 88% 0 mm
10:04 2.4 °C 0.8 °C 995.5 hPa South 8 km/h 14.5 km/h 89% 0 mm
10:09 2.5 °C 0.9 °C 995.1 hPa South 4.8 km/h 14.5 km/h 89% 0 mm
10:14 2.5 °C 0.9 °C 994.5 hPa South 12.9 km/h 24.1 km/h 89% 0 mm
10:19 2.8 °C 1.2 °C 994.1 hPa South 11.3 km/h 24.1 km/h 89% 0 mm
10:25 3.1 °C 1.3 °C 994.1 hPa South 8 km/h 24.1 km/h 88% 0 mm
10:34 3.7 °C 1.7 °C 993.8 hPa South 9.7 km/h 22.5 km/h 87% 0 mm
10:40 3.9 °C 1.8 °C 993.5 hPa SSE 6.4 km/h 22.5 km/h 86% 0 mm
10:49 4.2 °C 1.9 °C 993.5 hPa South 6.4 km/h 25.7 km/h 85% 0 mm
10:54 4.3 °C 1.9 °C 993.8 hPa SSW 8 km/h 22.5 km/h 84% 0 mm
10:59 4.4 °C 2 °C 993.8 hPa SSW 4.8 km/h 20.9 km/h 84% 0 mm
11:04 4.5 °C 1.9 °C 993.8 hPa SSW 14.5 km/h 24.1 km/h 83% 0 mm
11:09 4.5 °C 1.9 °C 993.8 hPa SSW 6.4 km/h 24.1 km/h 83% 0 mm
11:14 4.3 °C 1.7 °C 993.8 hPa SW 6.4 km/h 22.5 km/h 83% 0 mm
11:19 4.2 °C 1.6 °C 993.8 hPa SSW 9.7 km/h 22.5 km/h 83% 0 mm
11:24 4.1 °C 1.6 °C 993.8 hPa SW 6.4 km/h 14.5 km/h 84% 0 mm
11:30 3.9 °C 1.5 °C 993.1 hPa SSW 6.4 km/h 14.5 km/h 84% 0 mm
11:39 3.7 °C 1.4 °C 993.5 hPa SW 4.8 km/h 17.7 km/h 85% 0 mm
11:44 3.6 °C 1.4 °C 993.1 hPa SSW 3.2 km/h 17.7 km/h 86% 0 mm
11:49 3.5 °C 1.4 °C 992.8 hPa South 3.2 km/h 12.9 km/h 86% 0 mm
11:54 3.6 °C 1.4 °C 992.8 hPa South 3.2 km/h 11.3 km/h 86% 0 mm
11:59 3.6 °C 1.4 °C 992.8 hPa SW 3.2 km/h 11.3 km/h 86% 0 mm
12:04 3.5 °C 1.4 °C 992.8 hPa SW 1.6 km/h 11.3 km/h 86% 0 mm
12:09 3.4 °C 1.3 °C 992.8 hPa Calm   9.7 km/h 86% 0 mm
12:14 3.4 °C 1.4 °C 992.1 hPa South 1.6 km/h 9.7 km/h 87% 0 mm
12:19 3.4 °C 1.5 °C 991.8 hPa South 6.4 km/h 12.9 km/h 87% 0 mm
12:24 3.6 °C 1.4 °C 991.8 hPa South 8 km/h 14.5 km/h 86% 0 mm
12:29 3.7 °C 1.6 °C 991.8 hPa SW 6.4 km/h 14.5 km/h 86% 0 mm
12:34 3.7 °C 1.4 °C 991.8 hPa SW 4.8 km/h 12.9 km/h 85% 0 mm
12:44 3.8 °C 1.6 °C 992.1 hPa South 8 km/h 16.1 km/h 85% 0 mm
12:49 3.8 °C 1.4 °C 991.8 hPa Calm   16.1 km/h 84% 0 mm
12:54 3.8 °C 1.6 °C 991.4 hPa South 3.2 km/h 6.4 km/h 85% 0 mm
12:59 3.7 °C 1.4 °C 991.4 hPa SSW 6.4 km/h 12.9 km/h 85% 0 mm
13:04 3.7 °C 1.4 °C 991.1 hPa SSW 8 km/h 12.9 km/h 85% 0 mm
13:09 3.6 °C 1.4 °C 991.1 hPa SSW 4.8 km/h 12.9 km/h 86% 0 mm
13:14 3.6 °C 1.4 °C 991.1 hPa SSW 6.4 km/h 11.3 km/h 86% 0 mm
13:19 3.4 °C 1.3 °C 991.1 hPa South 6.4 km/h 11.3 km/h 86% 0 mm
13:24 3.4 °C 1.3 °C 990.7 hPa SSW 3.2 km/h 14.5 km/h 86% 0 mm
13:30 3.4 °C 1.3 °C 990.7 hPa SSW 4.8 km/h 14.5 km/h 86% 0 mm
13:39 3.3 °C 1.2 °C 990.1 hPa SSW 3.2 km/h 9.7 km/h 86% 0 mm
13:44 3.4 °C 1.5 °C 989.7 hPa SSW 4.8 km/h 11.3 km/h 87% 0 mm
13:49 3.7 °C 1.7 °C 990.1 hPa SSW 3.2 km/h 11.3 km/h 87% 0 mm
13:54 3.7 °C 1.6 °C 990.4 hPa South 3.2 km/h 12.9 km/h 86% 0 mm
13:59 3.7 °C 1.6 °C 990.4 hPa South 1.6 km/h 12.9 km/h 86% 0 mm
14:04 3.7 °C 1.6 °C 990.4 hPa South 4.8 km/h 11.3 km/h 86% 0 mm
14:09 3.8 °C 1.8 °C 990.1 hPa South 6.4 km/h 12.9 km/h 87% 0 mm
14:14 3.8 °C 1.8 °C 990.1 hPa SSW 4.8 km/h 12.9 km/h 87% 0 mm
14:19 3.7 °C 1.7 °C 989.7 hPa SSW 8 km/h 12.9 km/h 87% 0 mm
14:25 3.7 °C 1.8 °C 989.7 hPa SSW 3.2 km/h 12.9 km/h 87% 0 mm
14:34 3.8 °C 1.8 °C 989.7 hPa SSW 6.4 km/h 11.3 km/h 87% 0 mm
14:39 3.8 °C 1.9 °C 989.7 hPa SSW 3.2 km/h 11.3 km/h 87% 0 mm
14:49 3.9 °C 1.9 °C 989.7 hPa SSW 3.2 km/h 11.3 km/h 87% 0 mm
14:54 3.9 °C 2 °C 989.4 hPa SSW 4.8 km/h 11.3 km/h 87% 0 mm
14:59 3.9 °C 1.8 °C 989.4 hPa SSW 4.8 km/h 11.3 km/h 86% 0 mm
15:04 3.9 °C 1.8 °C 989.4 hPa SSW 4.8 km/h 9.7 km/h 86% 0 mm
15:09 3.8 °C 1.9 °C 989.1 hPa SSW 3.2 km/h 8 km/h 87% 0 mm
15:14 3.8 °C 1.9 °C 989.4 hPa SSW 3.2 km/h 8 km/h 87% 0 mm
15:19 3.8 °C 1.9 °C 989.4 hPa SSW 6.4 km/h 11.3 km/h 87% 0 mm
15:24 3.9 °C 1.9 °C 989.4 hPa SSW 4.8 km/h 11.3 km/h 87% 0 mm
15:34 3.8 °C 1.8 °C 989.7 hPa Calm   8 km/h 87% 0 mm
15:39 3.7 °C 1.8 °C 989.7 hPa Calm   8 km/h 87% 0 mm
15:44 3.6 °C 1.7 °C 989.7 hPa SSW 1.6 km/h 8 km/h 87% 0 mm
15:49 3.6 °C 1.6 °C 990.1 hPa SSW 3.2 km/h 8 km/h 87% 0 mm
15:54 3.5 °C 1.6 °C 990.1 hPa SSW 1.6 km/h 8 km/h 87% 0 mm
15:59 3.4 °C 1.7 °C 990.1 hPa SSW 3.2 km/h 8 km/h 88% 0 mm
16:04 3.4 °C 1.6 °C 990.1 hPa Calm   8 km/h 88% 0 mm
16:09 3.4 °C 1.6 °C 990.1 hPa Calm   4.8 km/h 88% 0 mm
16:14 3.4 °C 1.6 °C 990.1 hPa SSW 1.6 km/h 6.4 km/h 88% 0 mm
16:19 3.4 °C 1.8 °C 990.4 hPa Calm   6.4 km/h 89% 0 mm
16:24 3.5 °C 1.8 °C 990.4 hPa SSW 3.2 km/h 8 km/h 89% 0 mm
16:29 3.7 °C 2.1 °C 990.4 hPa SSW 4.8 km/h 9.7 km/h 89% 0 mm
16:39 3.8 °C 2.3 °C 990.7 hPa SW 6.4 km/h 11.3 km/h 90% 0 mm
16:44 3.8 °C 2.3 °C 991.1 hPa SW 6.4 km/h 12.9 km/h 90% 0 mm
16:49 4.1 °C 2.8 °C 991.1 hPa SW 11.3 km/h 19.3 km/h 91% 0 mm
16:54 4.2 °C 2.8 °C 991.4 hPa WSW 8 km/h 19.3 km/h 91% 0 mm
16:59 4.2 °C 2.8 °C 991.8 hPa WSW 12.9 km/h 24.1 km/h 91% 0 mm
17:04 4.4 °C 3.1 °C 992.1 hPa WSW 12.9 km/h 30.6 km/h 91% 0 mm
17:09 4.3 °C 2.8 °C 992.1 hPa West 12.9 km/h 30.6 km/h 90% 0 mm
17:14 4.2 °C 2.5 °C 992.1 hPa WSW 16.1 km/h 33.8 km/h 89% 0 mm
17:19 4.2 °C 2.3 °C 992.4 hPa West 12.9 km/h 33.8 km/h 88% 0 mm
17:24 4 °C 2.2 °C 992.8 hPa WSW 14.5 km/h 29 km/h 88% 0 mm
17:29 3.8 °C 1.9 °C 992.8 hPa West 19.3 km/h 30.6 km/h 87% 0 mm
17:34 3.5 °C 1.2 °C 993.1 hPa West 17.7 km/h 30.6 km/h 85% 0 mm
17:39 3.1 °C 0.8 °C 993.5 hPa West 17.7 km/h 30.6 km/h 85% 0 mm
17:44 2.8 °C 0.5 °C 993.5 hPa West 19.3 km/h 37 km/h 85% 0 mm
17:49 2.3 °C 0.1 °C 993.8 hPa West 16.1 km/h 37 km/h 85% 0 mm
17:54 2.1 °C -0.2 °C 994.1 hPa West 9.7 km/h 29 km/h 85% 0 mm
17:59 1.8 °C -0.3 °C 994.8 hPa WNW 14.5 km/h 29 km/h 86% 0 mm
18:04 1.7 °C -0.4 °C 994.8 hPa West 14.5 km/h 29 km/h 86% 0 mm
18:09 1.4 °C -0.7 °C 995.1 hPa WNW 11.3 km/h 30.6 km/h 86% 0 mm
18:14 1.3 °C -0.8 °C 995.5 hPa West 11.3 km/h 30.6 km/h 86% 0 mm
18:19 1.1 °C -0.9 °C 995.5 hPa WNW 16.1 km/h 30.6 km/h 86% 0 mm
18:24 0.9 °C -1.1 °C 995.5 hPa WNW 9.7 km/h 30.6 km/h 86% 0 mm
18:29 0.7 °C -1.2 °C 995.8 hPa West 12.9 km/h 25.7 km/h 87% 0 mm
18:34 0.7 °C -1.2 °C 995.8 hPa WNW 6.4 km/h 19.3 km/h 87% 0 mm
18:39 0.6 °C -1.3 °C 996.2 hPa West 9.7 km/h 17.7 km/h 87% 0 mm
18:45 0.5 °C -1.4 °C 996.5 hPa WNW 11.3 km/h 22.5 km/h 87% 0 mm
18:54 0.4 °C -1.4 °C 996.5 hPa WNW 6.4 km/h 14.5 km/h 88% 0 mm
18:59 0.4 °C -1.4 °C 996.5 hPa WNW 4.8 km/h 12.9 km/h 88% 0 mm
19:04 0.3 °C -1.4 °C 996.8 hPa WNW 4.8 km/h 12.9 km/h 88% 0 mm
19:09 0.3 °C -1.4 °C 996.8 hPa WSW 4.8 km/h 12.9 km/h 88% 0 mm
19:14 0.3 °C -1.4 °C 996.8 hPa West 4.8 km/h 12.9 km/h 88% 0 mm
19:19 0.4 °C -1.4 °C 997.2 hPa West 8 km/h 16.1 km/h 88% 0 mm
19:24 0.4 °C -1.4 °C 997.2 hPa West 8 km/h 16.1 km/h 88% 0 mm
19:29 0.4 °C -1.4 °C 997.2 hPa WNW 6.4 km/h 12.9 km/h 88% 0 mm
19:34 0.3 °C -1.4 °C 997.5 hPa WNW 8 km/h 11.3 km/h 88% 0 mm
19:39 0.3 °C -1.5 °C 997.5 hPa WNW 4.8 km/h 11.3 km/h 88% 0 mm
19:44 0.2 °C -1.6 °C 997.9 hPa WNW 8 km/h 14.5 km/h 88% 0 mm
19:54 0 °C -1.6 °C 997.9 hPa NW 3.2 km/h 19.3 km/h 89% 0 mm
19:59 -0.2 °C -1.9 °C 998.2 hPa WNW 8 km/h 14.5 km/h 88% 0 mm
20:04 -0.2 °C -1.8 °C 998.2 hPa NW 4.8 km/h 14.5 km/h 89% 0 mm
20:09 -0.3 °C -1.9 °C 998.5 hPa NW 1.6 km/h 12.9 km/h 89% 0 mm
20:14 -0.3 °C -1.9 °C 998.9 hPa NW 1.6 km/h 11.3 km/h 89% 0 mm
20:19 -0.3 °C -1.9 °C 998.9 hPa NW 8 km/h 14.5 km/h 89% 0 mm
20:24 -0.4 °C -2.1 °C 999.2 hPa NW 11.3 km/h 16.1 km/h 89% 0 mm
20:29 -0.5 °C -2.1 °C 999.2 hPa NW 4.8 km/h 16.1 km/h 89% 0 mm
20:34 -0.5 °C -2.1 °C 999.2 hPa WNW 9.7 km/h 14.5 km/h 89% 0 mm
20:39 -0.6 °C -2.2 °C 999.5 hPa WNW 11.3 km/h 17.7 km/h 89% 0 mm
20:44 -0.6 °C -2.3 °C 999.5 hPa WNW 12.9 km/h 20.9 km/h 88% 0 mm
20:49 -0.7 °C -2.4 °C 999.9 hPa WNW 16.1 km/h 35.4 km/h 88% 0 mm
20:54 -0.7 °C -2.6 °C 999.9 hPa WNW 11.3 km/h 35.4 km/h 87% 0 mm
20:59 -0.8 °C -2.7 °C 1000.6 hPa NW 11.3 km/h 24.1 km/h 87% 0 mm
21:04 -0.9 °C -2.8 °C 1000.6 hPa WNW 16.1 km/h 30.6 km/h 87% 0 mm
21:09 -1 °C -2.9 °C 1000.6 hPa WNW 9.7 km/h 33.8 km/h 87% 0 mm
21:14 -1 °C -2.9 °C 1000.6 hPa WNW 12.9 km/h 33.8 km/h 87% 0 mm
21:19 -1.1 °C -2.9 °C 1000.9 hPa NW 9.7 km/h 25.7 km/h 87% 0 mm
21:24 -1.1 °C -2.9 °C 1000.9 hPa NW 6.4 km/h 25.7 km/h 87% 0 mm
21:29 -1.1 °C -3 °C 1001.2 hPa NW 3.2 km/h 16.1 km/h 87% 0 mm
21:34 -1.1 °C -3 °C 1001.2 hPa NW 4.8 km/h 12.9 km/h 87% 0 mm
21:39 -1.1 °C -3 °C 1001.6 hPa NW 3.2 km/h 9.7 km/h 87% 0 mm
21:44 -1.1 °C -2.8 °C 1001.6 hPa WNW 1.6 km/h 9.7 km/h 88% 0 mm
21:49 -1.1 °C -2.8 °C 1001.6 hPa NW 4.8 km/h 14.5 km/h 88% 0 mm
21:54 -1.2 °C -2.9 °C 1001.9 hPa NW 6.4 km/h 17.7 km/h 88% 0 mm
21:59 -1.2 °C -3.1 °C 1001.9 hPa NW 6.4 km/h 22.5 km/h 87% 0 mm
22:04 -1.3 °C -3.2 °C 1002.3 hPa WNW 6.4 km/h 22.5 km/h 87% 0 mm
22:09 -1.4 °C -3.3 °C 1002.3 hPa NW 3.2 km/h 19.3 km/h 87% 0 mm
22:14 -1.4 °C -3.2 °C 1002.6 hPa WNW 6.4 km/h 16.1 km/h 88% 0 mm
22:19 -1.4 °C -3.3 °C 1002.6 hPa NW 4.8 km/h 16.1 km/h 87% 0 mm
22:24 -1.4 °C -3.2 °C 1002.6 hPa NW 4.8 km/h 14.5 km/h 88% 0 mm
22:29 -1.4 °C -3.2 °C 1002.6 hPa West 6.4 km/h 11.3 km/h 88% 0 mm
22:34 -1.4 °C -3.2 °C 1002.6 hPa West 6.4 km/h 11.3 km/h 88% 0 mm
22:39 -1.4 °C -3.1 °C 1002.9 hPa West 4.8 km/h 11.3 km/h 88% 0 mm
22:49 -1.3 °C -3.2 °C 1003.3 hPa West 6.4 km/h 20.9 km/h 87% 0 mm
22:54 -1.2 °C -3.1 °C 1003.3 hPa WNW 9.7 km/h 20.9 km/h 87% 0 mm
22:59 -1.2 °C -3.1 °C 1003.3 hPa NW 1.6 km/h 14.5 km/h 87% 0 mm
23:04 -1.2 °C -3.1 °C 1003.6 hPa NW 4.8 km/h 11.3 km/h 87% 0 mm
23:09 -1.2 °C -3.1 °C 1003.6 hPa NW 9.7 km/h 25.7 km/h 87% 0 mm
23:14 -1.1 °C -2.9 °C 1003.9 hPa WNW 11.3 km/h 25.7 km/h 87% 0 mm
23:19 -1 °C -2.9 °C 1003.9 hPa WNW 9.7 km/h 22.5 km/h 87% 0 mm
23:25 -0.9 °C -2.9 °C 1004.3 hPa WNW 9.7 km/h 19.3 km/h 86% 0 mm
23:34 -0.8 °C -2.9 °C 1004.3 hPa West 12.9 km/h 27.4 km/h 86% 0 mm
23:39 -0.7 °C -2.9 °C 1004.6 hPa West 14.5 km/h 29 km/h 85% 0 mm
23:44 -0.7 °C -2.9 °C 1004.6 hPa NW 9.7 km/h 29 km/h 85% 0 mm
23:49 -0.7 °C -2.9 °C 1004.6 hPa NW 11.3 km/h 22.5 km/h 85% 0 mm
23:54 -0.7 °C -2.9 °C 1004.6 hPa NW 14.5 km/h 30.6 km/h 85% 0 mm
23:59 -0.7 °C -2.9 °C 1004.6 hPa WNW 6.4 km/h 30.6 km/h 85% 0 mm
Westford Weather
Compliments of Weather Underground

 
 
Current Radar Loop:

Copyright © WestfordWeather.net 2007-2014. All rights reserved.